Time,TemperatureF,DewpointF,PressureIn,WindDirection,WindDirectionDegrees,WindSpeedMPH,WindSpeedGustMPH,Humidity,HourlyPrecipIn,Conditions,Clouds,dailyrainin,SoftwareType,DateUTC
2013-10-25 00:12:00,36.0,27.0,30.30,WNW,300,2.0,5.0,69,0.00,,,0.03,,2013-10-25 04:12:00,
2013-10-25 00:14:00,36.0,27.0,30.29,NW,305,4.0,7.0,70,0.00,,,0.03,,2013-10-25 04:14:00,
2013-10-25 00:24:00,36.0,27.0,30.30,WNW,296,3.0,5.0,69,0.00,,,0.03,,2013-10-25 04:24:00,
2013-10-25 00:54:00,36.0,27.0,30.30,WNW,300,2.0,5.0,69,0.00,,,0.03,,2013-10-25 04:54:00,
2013-10-25 01:03:00,36.0,27.0,30.30,WNW,300,2.0,5.0,69,0.00,,,0.03,,2013-10-25 05:03:00,
2013-10-25 09:11:00,31.0,26.0,30.42,WNW,282,4.0,8.0,81,0.00,,,0.03,,2013-10-25 13:11:00,
2013-10-25 09:21:00,32.0,27.0,30.43,West,275,4.0,9.0,80,0.00,,,0.03,,2013-10-25 13:21:00,
2013-10-25 09:41:00,32.0,26.0,30.43,NW,310,4.0,8.0,79,0.00,,,0.03,,2013-10-25 13:41:00,
2013-10-25 09:52:00,33.0,27.0,30.44,West,279,2.0,6.0,78,0.00,,,0.03,,2013-10-25 13:52:00,
2013-10-25 10:22:00,36.0,28.0,30.44,WNW,283,1.0,5.0,73,0.00,,,0.03,,2013-10-25 14:22:00,
2013-10-25 10:42:00,37.0,28.0,30.44,NNW,337,3.0,6.0,71,0.00,,,0.03,,2013-10-25 14:42:00,
2013-10-25 10:52:00,38.0,28.0,30.44,NW,323,2.0,4.0,68,0.00,,,0.03,,2013-10-25 14:52:00,
2013-10-25 11:11:00,39.0,28.0,30.44,NNW,342,2.0,4.0,65,0.00,,,0.03,,2013-10-25 15:11:00,
2013-10-25 11:21:00,41.0,30.0,30.45,North,5,1.0,4.0,64,0.00,,,0.03,,2013-10-25 15:21:00,
2013-10-25 11:53:00,42.0,29.0,30.45,NNW,328,3.0,4.0,59,0.00,,,0.03,,2013-10-25 15:53:00,
2013-10-25 12:23:00,43.0,27.0,30.45,West,276,4.0,7.0,52,0.00,,,0.03,,2013-10-25 16:23:00,
2013-10-25 12:43:00,44.0,28.0,30.45,WSW,237,4.0,6.0,52,0.00,,,0.01,,2013-10-25 16:43:00,
2013-10-25 12:53:00,44.0,26.0,30.45,WNW,296,5.0,12.0,49,0.00,,,0.01,,2013-10-25 16:53:00,
2013-10-25 13:22:00,45.0,27.0,30.45,NNW,345,6.0,10.0,48,0.00,,,0.01,,2013-10-25 17:22:00,
2013-10-25 13:52:00,46.0,27.0,30.43,West,277,4.0,11.0,47,0.00,,,0.01,,2013-10-25 17:52:00,
2013-10-25 14:12:00,46.0,26.0,30.42,West,275,4.0,10.0,45,0.00,,,0.01,,2013-10-25 18:12:00,
2013-10-25 14:21:00,46.0,27.0,30.42,WNW,294,5.0,10.0,47,0.00,,,0.01,,2013-10-25 18:21:00,
2013-10-25 14:52:00,46.0,25.0,30.40,WNW,290,5.0,14.0,44,0.00,,,0.00,,2013-10-25 18:52:00,
2013-10-25 15:11:00,47.0,25.0,30.39,WNW,282,7.0,12.0,42,0.00,,,0.00,,2013-10-25 19:11:00,
2013-10-25 15:22:00,47.0,25.0,30.39,West,273,5.0,10.0,42,0.00,,,0.00,,2013-10-25 19:22:00,
2013-10-25 15:42:00,47.0,25.0,30.38,SW,216,4.0,9.0,41,0.00,,,0.00,,2013-10-25 19:42:00,
2013-10-25 15:52:00,48.0,25.0,30.37,WSW,242,5.0,14.0,40,0.00,,,0.00,,2013-10-25 19:52:00,
2013-10-25 16:22:00,48.0,24.0,30.37,West,264,5.0,10.0,39,0.00,,,0.00,,2013-10-25 20:22:00,
2013-10-25 16:52:00,48.0,24.0,30.35,NW,315,5.0,7.0,39,0.00,,,0.00,,2013-10-25 20:52:00,
2013-10-25 17:22:00,48.0,25.0,30.35,WSW,245,5.0,9.0,40,0.00,,,0.00,,2013-10-25 21:22:00,
2013-10-25 17:43:00,48.0,24.0,30.34,WSW,242,7.0,12.0,39,0.00,,,0.00,,2013-10-25 21:43:00,
2013-10-25 17:54:00,48.0,24.0,30.34,SW,231,7.0,14.0,38,0.00,,,0.00,,2013-10-25 21:54:00,
2013-10-25 18:23:00,47.0,23.0,30.33,WSW,255,8.0,12.0,39,0.00,,,0.00,,2013-10-25 22:23:00,
2013-10-25 18:42:00,47.0,25.0,30.33,SW,220,7.0,12.0,42,0.00,,,0.00,,2013-10-25 22:42:00,
2013-10-25 18:53:00,46.0,25.0,30.32,WSW,250,7.0,7.0,44,0.00,,,0.00,,2013-10-25 22:53:00,
2013-10-25 19:22:00,45.0,26.0,30.32,SW,217,4.0,7.0,47,0.00,,,0.00,,2013-10-25 23:22:00,
2013-10-25 19:52:00,44.0,26.0,30.32,SSW,207,4.0,5.0,49,0.00,,,0.00,,2013-10-25 23:52:00,
2013-10-25 20:11:00,43.0,26.0,30.31,SSW,213,3.0,5.0,50,0.00,,,0.00,,2013-10-26 00:11:00,
2013-10-25 20:22:00,43.0,26.0,30.31,SSW,194,4.0,5.0,51,0.00,,,0.00,,2013-10-26 00:22:00,
2013-10-25 20:42:00,42.0,26.0,30.31,South,188,4.0,6.0,53,0.00,,,0.00,,2013-10-26 00:42:00,
2013-10-25 20:52:00,41.0,26.0,30.31,SSW,195,4.0,7.0,54,0.00,,,0.00,,2013-10-26 00:52:00,
2013-10-25 21:12:00,41.0,27.0,30.30,South,191,4.0,6.0,56,0.00,,,0.00,,2013-10-26 01:12:00,
2013-10-25 21:22:00,40.0,26.0,30.30,SSW,192,4.0,6.0,57,0.00,,,0.00,,2013-10-26 01:22:00,
2013-10-25 21:52:00,40.0,27.0,30.29,South,190,5.0,8.0,59,0.00,,,0.00,,2013-10-26 01:52:00,
2013-10-25 22:12:00,39.0,26.0,30.29,South,169,5.0,8.0,60,0.00,,,0.00,,2013-10-26 02:12:00,
2013-10-25 22:22:00,39.0,27.0,30.28,South,188,5.0,7.0,61,0.00,,,0.00,,2013-10-26 02:22:00,
2013-10-25 22:43:00,38.0,26.0,30.28,SSW,201,5.0,7.0,62,0.00,,,0.00,,2013-10-26 02:43:00,
2013-10-25 22:52:00,38.0,26.0,30.28,SSW,212,6.0,10.0,62,0.00,,,0.00,,2013-10-26 02:52:00,
2013-10-25 23:12:00,38.0,26.0,30.28,South,178,6.0,8.0,62,0.00,,,0.00,,2013-10-26 03:12:00,
2013-10-25 23:22:00,38.0,27.0,30.27,SSW,205,6.0,8.0,63,0.00,,,0.00,,2013-10-26 03:22:00,
2013-10-25 23:54:00,37.0,27.0,30.26,SSW,192,5.0,9.0,66,0.00,,,0.00,,2013-10-26 03:54:00,